Hourly Data Report for October 29, 2013

All times are specified in Local Standard Time (LST). Add 1 hour to adjust for Daylight Saving Time where and when it is observed.

KUGAARUK CLIMATE
NUNAVUT

68°32'15.060" N
89°47'47.020" W
15.80 m
2303094
71407
NBB

Download Data

Hourly Data (October 2013)
Hourly Data Report for October 29, 2013
Temp Definition
°C
Dew Point Temp Definition
°C
Rel Hum Definition
%
Wind Dir Definition
10's deg

Wind Spd Definition
km/h
Visibility Definition
km
Stn Press Definition
kPa
Hmdx Definition


Wind Chill Definition


Weather Definition


TIME
00:00 -16.3 -18.5 83 31 19   100.80   -26 LegendNANA
01:00 -16.7 -18.8 84 29 17   100.82   -26 LegendNANA
02:00 -16.9 -19.0 84 30 17   100.84   -26 LegendNANA
03:00 -17.1 -19.3 83 29 17   100.84   -26 LegendNANA
04:00 -17.1 -19.3 83 29 13   100.86   -25 LegendNANA
05:00 -17.1 -19.3 83 29 15   100.87   -26 LegendNANA
06:00 -17.0 -19.2 83 30 13   100.85   -25 LegendNANA
07:00 -17.2 -19.4 83 30 15   100.85   -26 LegendNANA
08:00 -18.0 -20.3 82 29 9   100.84   -24 LegendNANA
09:00 -18.2 -20.6 81 29 11   100.86   -25 LegendNANA
10:00 -17.9 -20.1 83 28 13   100.86   -26 LegendNANA
11:00 -17.2 -19.4 83 26 13   100.84   -25 LegendNANA
12:00 -17.4 -19.7 82 22 13   100.84   -25 LegendNANA
13:00 -17.6 -19.9 82 23 17   100.88   -27 LegendNANA
14:00 -17.3 -19.5 83 23 20   100.90   -27 LegendNANA
15:00 -17.1 -19.2 84 24 19   100.88   -27 LegendNANA
16:00 -18.0 -20.3 82 23 22   100.90   -28 LegendNANA
17:00 -17.8 -20.1 82 23 19   100.90   -27 LegendNANA
18:00 -18.4 -20.8 81 24 24   100.90   -29 LegendNANA
19:00 -18.1 -20.5 81 24 22   100.92   -29 LegendNANA
20:00 -17.6 -19.8 83 23 20   100.90   -27 LegendNANA
21:00 -16.8 -18.7 85 23 13   100.87   -25 LegendNANA
22:00 -16.9 -18.9 84 23 9   100.85   -23 LegendNANA
23:00 -17.1 -19.2 84 23 9   100.82   -23 LegendNANA

Notes on Data Quality.

Legend

  • E = Estimated
  • M = Missing
  • NA = Not Available
  • ‡ = Partner data that is not subject to review by the National Climate Archives
Date modified: